When you browse on this site, cookies collect data to enhance your experience and personalize the content and advertising you see.
Visit our Privacy Policy to learn more. By continuing to use the site, you agree to this use of cookies and data.
  • In Hungary
  • List of Countries
  • For 7 days
  • Water Temperature
  • Weather Map
  • News
  • Weather Widgets
  • user-avatar
    Login

    Hourly Weather Syberezh

    Today, 14 December, Saturday

    Time Temperature Precipitation Wind Pressure Humidity
    00:00 -3°C° 0 mm 6 mps 743 mmHg 81%
    01:00 -3°C° 0 mm 6 mps 743 mmHg 81%
    02:00 -2°C° 0 mm 5 mps 743 mmHg 81%
    03:00 -2°C° 0 mm 5 mps 742 mmHg 81%
    04:00 -2°C° 0 mm 5 mps 742 mmHg 81%
    05:00 -2°C° 0 mm 5 mps 742 mmHg 82%
    06:00 -2°C° 0 mm 5 mps 742 mmHg 84%
    07:00 -2°C° 0 mm 5 mps 742 mmHg 86%
    08:00 -2°C° 0 mm 4 mps 742 mmHg 86%
    09:00 -1°C° 0 mm 4 mps 742 mmHg 86%
    10:00 -1°C° 0 mm 4 mps 742 mmHg 86%
    11:00 0°C° 0 mm 5 mps 742 mmHg 86%
    12:00 0°C° 0 mm 4 mps 742 mmHg 88%
    13:00 0°C° 0 mm 4 mps 742 mmHg 90%
    14:00 +1°C° 0 mm 3 mps 742 mmHg 89%
    15:00 0°C° 0 mm 3 mps 742 mmHg 90%
    16:00 -1°C° 0 mm 4 mps 742 mmHg 91%
    17:00 -1°C° 0 mm 4 mps 741 mmHg 92%
    18:00 -1°C° 0 mm 4 mps 741 mmHg 92%
    19:00 -1°C° 0 mm 4 mps 741 mmHg 91%
    20:00 -1°C° 0 mm 4 mps 741 mmHg 91%
    21:00 0°C° 0 mm 5 mps 741 mmHg 92%
    22:00 0°C° 0 mm 5 mps 741 mmHg 94%
    23:00 0°C° 0 mm 5 mps 740 mmHg 95%

    Tomorrow, 15 December, Sunday

    Time Temperature Precipitation Wind Pressure Humidity
    00:00 +1°C° 0.6 mm 5 mps 740 mmHg 96%
    01:00 +1°C° 0.6 mm 5 mps 740 mmHg 96%
    02:00 +2°C° 0.6 mm 5 mps 740 mmHg 96%
    03:00 +2°C° 0.8 mm 5 mps 739 mmHg 96%
    04:00 +2°C° 0.8 mm 5 mps 739 mmHg 96%
    05:00 +4°C° 0.8 mm 4 mps 739 mmHg 96%
    06:00 +4°C° 1 mm 4 mps 739 mmHg 97%
    07:00 +4°C° 1 mm 4 mps 739 mmHg 97%
    08:00 +4°C° 1 mm 3 mps 739 mmHg 97%
    09:00 +4°C° 0.3 mm 4 mps 740 mmHg 92%
    10:00 +4°C° 0.3 mm 4 mps 740 mmHg 87%
    11:00 +3°C° 0.3 mm 5 mps 741 mmHg 82%
    12:00 +4°C° 0 mm 4 mps 741 mmHg 79%
    13:00 +4°C° 0 mm 4 mps 741 mmHg 76%
    14:00 +4°C° 0 mm 4 mps 742 mmHg 73%
    15:00 +3°C° 0 mm 4 mps 743 mmHg 77%
    16:00 +3°C° 0 mm 3 mps 743 mmHg 80%
    17:00 +2°C° 0 mm 3 mps 744 mmHg 83%
    18:00 +2°C° 0 mm 3 mps 745 mmHg 83%
    19:00 +2°C° 0 mm 3 mps 745 mmHg 83%
    20:00 +3°C° 0 mm 2 mps 745 mmHg 83%
    21:00 +2°C° 0 mm 3 mps 746 mmHg 84%
    22:00 +1°C° 0 mm 3 mps 746 mmHg 85%
    23:00 +1°C° 0 mm 3 mps 746 mmHg 86%

    Day after tomorrow, 16 December, Monday

    Time Temperature Precipitation Wind Pressure Humidity
    00:00 0°C° 0 mm 4 mps 746 mmHg 84%
    01:00 +1°C° 0 mm 4 mps 746 mmHg 83%
    02:00 +1°C° 0 mm 5 mps 746 mmHg 82%
    03:00 +1°C° 0 mm 5 mps 746 mmHg 81%
    04:00 +3°C° 0 mm 4 mps 746 mmHg 81%
    05:00 +3°C° 0 mm 4 mps 746 mmHg 81%
    06:00 +3°C° 0 mm 4 mps 747 mmHg 84%
    07:00 +3°C° 0 mm 4 mps 747 mmHg 86%
    08:00 +3°C° 0 mm 3 mps 748 mmHg 89%
    09:00 +3°C° 0 mm 4 mps 748 mmHg 86%
    10:00 +4°C° 0 mm 4 mps 748 mmHg 83%
    11:00 +4°C° 0 mm 4 mps 749 mmHg 79%
    12:00 +5°C° 0 mm 4 mps 749 mmHg 78%
    13:00 +5°C° 0 mm 4 mps 749 mmHg 76%
    14:00 +5°C° 0 mm 3 mps 749 mmHg 75%
    15:00 +4°C° 0 mm 3 mps 750 mmHg 80%
    16:00 +3°C° 0 mm 3 mps 750 mmHg 84%
    17:00 +4°C° 0 mm 2 mps 750 mmHg 89%
    18:00 +3°C° 0 mm 2 mps 751 mmHg 89%
    19:00 +3°C° 0 mm 2 mps 751 mmHg 89%
    20:00 +3°C° 0 mm 2 mps 751 mmHg 89%
    21:00 +3°C° 0 mm 2 mps 751 mmHg 88%
    22:00 +3°C° 0 mm 2 mps 751 mmHg 88%
    23:00 +4°C° 0 mm 1 mps 752 mmHg 88%

    17 December, Tuesday

    Time Temperature Precipitation Wind Pressure Humidity
    00:00 +3°C° 0 mm 2 mps 751 mmHg 88%
    01:00 +3°C° 0 mm 2 mps 751 mmHg 88%
    02:00 +3°C° 0 mm 2 mps 751 mmHg 89%
    03:00 +3°C° 0 mm 2 mps 751 mmHg 89%
    04:00 +2°C° 0 mm 3 mps 751 mmHg 90%
    05:00 +2°C° 0 mm 3 mps 751 mmHg 91%
    06:00 +2°C° 0 mm 3 mps 751 mmHg 90%
    07:00 +2°C° 0 mm 3 mps 751 mmHg 89%
    08:00 +3°C° 0 mm 4 mps 750 mmHg 88%
    09:00 +3°C° 0 mm 4 mps 751 mmHg 85%
    10:00 +4°C° 0 mm 4 mps 751 mmHg 82%
    11:00 +4°C° 0 mm 4 mps 751 mmHg 79%
    12:00 +5°C° 0 mm 4 mps 750 mmHg 77%
    13:00 +5°C° 0 mm 4 mps 750 mmHg 76%
    14:00 +6°C° 0 mm 4 mps 749 mmHg 74%
    15:00 +5°C° 0 mm 4 mps 749 mmHg 78%
    16:00 +4°C° 0 mm 4 mps 749 mmHg 81%
    17:00 +3°C° 0 mm 4 mps 749 mmHg 84%
    18:00 +3°C° 0 mm 4 mps 749 mmHg 84%
    19:00 +3°C° 0 mm 4 mps 749 mmHg 84%
    20:00 +3°C° 0 mm 4 mps 749 mmHg 84%
    21:00 +3°C° 0 mm 4 mps 749 mmHg 84%
    22:00 +3°C° 0 mm 4 mps 749 mmHg 84%
    23:00 +3°C° 0 mm 3 mps 749 mmHg 84%

    18 December, Wednesday

    Time Temperature Precipitation Wind Pressure Humidity
    00:00 +2°C° 0 mm 3 mps 749 mmHg 84%
    01:00 +2°C° 0 mm 3 mps 749 mmHg 85%
    02:00 +2°C° 0 mm 3 mps 748 mmHg 86%
    03:00 +2°C° 0 mm 3 mps 748 mmHg 86%
    04:00 +2°C° 0 mm 3 mps 748 mmHg 86%
    05:00 +2°C° 0 mm 3 mps 748 mmHg 86%
    06:00 +2°C° 0 mm 3 mps 748 mmHg 86%
    07:00 +2°C° 0 mm 3 mps 748 mmHg 86%
    08:00 +2°C° 0 mm 3 mps 747 mmHg 86%
    09:00 +3°C° 0 mm 3 mps 748 mmHg 82%
    10:00 +4°C° 0 mm 3 mps 748 mmHg 79%
    11:00 +5°C° 0 mm 3 mps 748 mmHg 75%
    12:00 +5°C° 0 mm 3 mps 747 mmHg 76%
    13:00 +7°C° 0 mm 3 mps 747 mmHg 77%
    14:00 +7°C° 0 mm 3 mps 747 mmHg 77%
    15:00 +5°C° 0 mm 3 mps 747 mmHg 81%
    16:00 +5°C° 0 mm 3 mps 747 mmHg 84%
    17:00 +4°C° 0 mm 3 mps 747 mmHg 88%
    18:00 +4°C° 0 mm 3 mps 747 mmHg 89%
    19:00 +4°C° 0 mm 3 mps 747 mmHg 89%
    20:00 +4°C° 0 mm 3 mps 747 mmHg 90%
    21:00 +3°C° 0 mm 3 mps 747 mmHg 91%
    22:00 +3°C° 0 mm 3 mps 748 mmHg 92%
    23:00 +3°C° 0 mm 3 mps 748 mmHg 92%

    19 December, Thursday

    Time Temperature Precipitation Wind Pressure Humidity
    00:00 +3°C° 0 mm 3 mps 748 mmHg 93%
    01:00 +3°C° 0 mm 3 mps 748 mmHg 93%
    02:00 +2°C° 0 mm 3 mps 747 mmHg 94%
    03:00 +2°C° 0 mm 3 mps 747 mmHg 94%
    04:00 +3°C° 0 mm 2 mps 747 mmHg 94%
    05:00 +3°C° 0 mm 2 mps 747 mmHg 94%
    06:00 +3°C° 0 mm 2 mps 747 mmHg 94%
    07:00 +3°C° 0 mm 2 mps 747 mmHg 94%
    08:00 +3°C° 0 mm 2 mps 747 mmHg 94%
    09:00 +4°C° 0 mm 2 mps 747 mmHg 93%
    10:00 +4°C° 0 mm 2 mps 747 mmHg 91%
    11:00 +4°C° 0 mm 3 mps 748 mmHg 90%
    12:00 +5°C° 0 mm 2 mps 747 mmHg 90%
    13:00 +5°C° 0 mm 2 mps 747 mmHg 90%
    14:00 +5°C° 0 mm 2 mps 746 mmHg 89%
    15:00 +5°C° 0 mm 2 mps 747 mmHg 91%
    16:00 +4°C° 0 mm 2 mps 747 mmHg 93%
    17:00 +4°C° 0 mm 2 mps 747 mmHg 95%
    18:00 +5°C° 0 mm 1 mps 747 mmHg 95%
    19:00 +5°C° 0 mm 1 mps 747 mmHg 95%
    20:00 +5°C° 0 mm 1 mps 747 mmHg 95%
    21:00 +5°C° 0 mm 1 mps 747 mmHg 95%
    22:00 +5°C° 0 mm 1 mps 747 mmHg 94%
    23:00 +5°C° 0 mm 1 mps 747 mmHg 94%
    Show more